QPF
0.03 0.04 0.00 0.00 0.00 0.00 0.01 0.07 0.08 0.03 0.03 0.06 0.02 0.00 0.00 0.00 0.00 0.00 0.00 0.00 0.00 0.00 0.00 0.00 0.00 0.00 0.00 0.00 0.00 0.00 0.00 0.00 0.00 0.00 0.00 0.00 0.00 0.00 0.00 0.01 0.04 0.09 0.01 0.00
0.03 0.01 0.01 0.00 0.00 0.00 0.00 0.02 0.03 0.01 0.05 0.25 0.08 0.03 0.00 0.00 0.00 0.00 0.01 0.01 0.02 0.00 0.00 0.00 0.00 0.00 0.00 0.00 0.00 0.00 0.00 0.00 0.00 0.00 0.00 0.00 0.00 0.00 0.00 0.01 0.01 0.02 0.00 0.00
0.01 0.01 0.00 0.00 0.00 0.00 0.00 0.00 0.00 0.01 0.02 0.09 0.40 0.29 0.04 0.00 0.00 0.00 0.00 0.00 0.01 0.02 0.00 0.00 0.00 0.00 0.00 0.00 0.00 0.00 0.00 0.00 0.00 0.00 0.00 0.00 0.00 0.00 0.00 0.01 0.00 0.04 0.00 0.00
0.00 0.00 0.00 0.00 0.01 0.00 0.00 0.00 0.00 0.02 0.01 0.05 0.06 0.06 0.06 0.03 0.00 0.00 0.00 0.00 0.00 0.00 0.00 0.00 0.00 0.00 0.00 0.00 0.00 0.00 0.00 0.00 0.00 0.00 0.00 0.00 0.00 0.00 0.02 0.01 0.25 0.11 0.03 0.01
0.00 0.00 0.00 0.00 0.00 0.00 0.00 0.00 0.00 0.01 0.02 0.04 0.01 0.00 0.00 0.00 0.00 0.00 0.00 0.00 0.00 0.00 0.00 0.00 0.00 0.00 0.00 0.00 0.00 0.00 0.00 0.00 0.00 0.00 0.00 0.00 0.00 0.00 0.00 0.03 0.10 0.23 0.18 0.05
0.00 0.00 0.00 0.00 0.00 0.00 0.00 0.00 0.00 0.01 0.01 0.00 0.00 0.00 0.00 0.00 0.00 0.00 0.01 0.00 0.00 0.00 0.00 0.00 0.00 0.00 0.00 0.00 0.00 0.00 0.00 0.00 0.00 0.00 0.00 0.00 0.00 0.00 0.00 0.01 0.04 0.09 0.22 0.06
0.00 0.00 0.00 0.00 0.00 0.00 0.00 0.00 0.01 0.01 0.04 0.02 0.05 0.04 0.00 0.00 0.01 0.00 0.05 0.03 0.00 0.00 0.01 0.02 0.01 0.00 0.00 0.00 0.00 0.00 0.00 0.00 0.00 0.00 0.00 0.00 0.00 0.00 0.00 0.00 0.01 0.09 0.06 0.09
0.00 0.00 0.00 0.00 0.00 0.00 0.00 0.00 0.00 0.00 0.17 0.08 0.11 0.19 0.00 0.00 0.00 0.00 0.06 0.10 0.10 0.03 0.01 0.01 0.01 0.00 0.00 0.00 0.00 0.00 0.00 0.00 0.00 0.00 0.00 0.00 0.00 0.00 0.00 0.00 0.00 0.02 0.07 0.04
0.00 0.00 0.00 0.00 0.00 0.00 0.00 0.00 0.00 0.00 0.06 0.29 0.07 0.03 0.00 0.00 0.00 0.00 0.00 0.09 0.56 0.21 0.01 0.01 0.00 0.00 0.00 0.00 0.00 0.00 0.00 0.00 0.00 0.00 0.00 0.00 0.00 0.00 0.00 0.00 0.00 0.00 0.01 0.10
0.00 0.00 0.00 0.00 0.00 0.00 0.00 0.00 0.00 0.00 0.00 0.02 0.01 0.09 0.04 0.00 0.00 0.00 0.00 0.01 0.04 0.07 0.04 0.05 0.00 0.00 0.00 0.01 0.00 0.00 0.00 0.00 0.00 0.00 0.00 0.00 0.00 0.00 0.00 0.00 0.00 0.00 0.00 0.01
0.00 0.00 0.00 0.00 0.00 0.00 0.00 0.00 0.00 0.00 0.00 0.00 0.01 0.25 0.05 0.01 0.00 0.00 0.00 0.00 0.01 0.03 0.03 0.05 0.04 0.03 0.02 0.02 0.00 0.00 0.00 0.00 0.00 0.00 0.00 0.00 0.00 0.00 0.00 0.00 0.00 0.00 0.00 0.01
0.00 0.00 0.00 0.00 0.00 0.00 0.00 0.00 0.00 0.00 0.00 0.00 0.00 0.21 0.03 0.01 0.00 0.00 0.00 0.00 0.00 0.00 0.03 0.05 0.08 0.07 0.02 0.02 0.01 0.00 0.00 0.00 0.00 0.00 0.00 0.00 0.00 0.00 0.00 0.00 0.00 0.00 0.00 0.00
0.00 0.00 0.00 0.00 0.00 0.00 0.00 0.00 0.00 0.00 0.00 0.00 0.01 0.11 0.01 0.00 0.00 0.00 0.00 0.00 0.00 0.00 0.00 0.02 0.02 0.01 0.00 0.00 0.00 0.00 0.00 0.00 0.00 0.00 0.00 0.00 0.00 0.00 0.00 0.00 0.00 0.00 0.00 0.00
0.00 0.00 0.00 0.00 0.00 0.00 0.00 0.00 0.00 0.00 0.00 0.00 0.00 0.06 0.01 0.00 0.00 0.00 0.00 0.00 0.00 0.00 0.00 0.00 0.00 0.00 0.00 0.00 0.00 0.00 0.00 0.00 0.00 0.00 0.00 0.00 0.00 0.00 0.00 0.00 0.00 0.00 0.00 0.00
0.00 0.00 0.00 0.00 0.00 0.00 0.00 0.00 0.00 0.00 0.00 0.00 0.00 0.00 0.05 0.07 0.04 0.01 0.00 0.00 0.00 0.00 0.00 0.00 0.00 0.00 0.00 0.00 0.00 0.00 0.00 0.00 0.00 0.00 0.00 0.00 0.00 0.00 0.00 0.00 0.00 0.00 0.03 0.02
0.00 0.00 0.00 0.00 0.00 0.00 0.00 0.00 0.00 0.00 0.00 0.00 0.00 0.00 0.01 0.05 0.02 0.00 0.00 0.00 0.00 0.00 0.00 0.00 0.00 0.00 0.00 0.00 0.00 0.00 0.00 0.00 0.00 0.00 0.00 0.00 0.00 0.00 0.01 0.02 0.01 0.01 0.02 0.09
0.00 0.00 0.00 0.00 0.00 0.00 0.00 0.00 0.00 0.00 0.00 0.00 0.00 0.00 0.01 0.02 0.00 0.00 0.00 0.00 0.00 0.00 0.00 0.00 0.00 0.00 0.00 0.00 0.00 0.00 0.00 0.00 0.00 0.02 0.02 0.03 0.03 0.04 0.02 0.03 0.05 0.05 0.09 0.18
0.00 0.00 0.00 0.00 0.00 0.00 0.01 0.01 0.00 0.00 0.00 0.00 0.00 0.00 0.00 0.00 0.00 0.01 0.00 0.00 0.00 0.00 0.00 0.00 0.00 0.00 0.00 0.00 0.00 0.00 0.00 0.00 0.00 0.00 0.00 0.01 0.01 0.02 0.07 0.12 0.11 0.14 0.21 0.13
0.00 0.00 0.02 0.01 0.02 0.01 0.01 0.02 0.00 0.00 0.00 0.00 0.00 0.00 0.02 0.03 0.01 0.00 0.00 0.00 0.00 0.00 0.00 0.00 0.00 0.00 0.00 0.00 0.00 0.00 0.00 0.00 0.00 0.00 0.00 0.00 0.00 0.00 0.00 0.00 0.00 0.00 0.00 0.00
0.00 0.00 0.00 0.00 0.01 0.02 0.05 0.02 0.01 0.01 0.01 0.02 0.01 0.05 0.16 0.07 0.04 0.03 0.00 0.00 0.00 0.00 0.00 0.00 0.00 0.00 0.00 0.00 0.00 0.00 0.00 0.00 0.00 0.00 0.00 0.00 0.00 0.00 0.00 0.00 0.00 0.00 0.00 0.00
0.00 0.00 0.00 0.00 0.00 0.00 0.00 0.00 0.00 0.00 0.01 0.02 0.01 0.08 0.20 0.05 0.05 0.13 0.05 0.00 0.00 0.00 0.00 0.00 0.00 0.00 0.00 0.00 0.00 0.00 0.00 0.00 0.00 0.00 0.00 0.00 0.00 0.00 0.00 0.00 0.00 0.00 0.00 0.00
0.00 0.00 0.00 0.00 0.00 0.00 0.00 0.00 0.00 0.00 0.00 0.01 0.07 0.13 0.28 0.20 0.13 0.31 0.04 0.00 0.00 0.00 0.00 0.00 0.00 0.00 0.00 0.00 0.00 0.00 0.00 0.00 0.00 0.00 0.00 0.00 0.00 0.00 0.00 0.00 0.00 0.00 0.00 0.00
0.00 0.00 0.00 0.00 0.00 0.00 0.00 0.00 0.00 0.00 0.00 0.02 0.11 0.08 0.14 0.13 0.05 0.01 0.00 0.01 0.00 0.00 0.00 0.00 0.00 0.00 0.00 0.00 0.00 0.00 0.00 0.00 0.00 0.00 0.00 0.00 0.00 0.00 0.00 0.00 0.00 0.00 0.00 0.00
0.00 0.00 0.00 0.00 0.00 0.00 0.00 0.00 0.00 0.00 0.00 0.00 0.02 0.05 0.04 0.03 0.00 0.00 0.00 0.00 0.00 0.00 0.00 0.00 0.00 0.00 0.00 0.00 0.00 0.00 0.00 0.00 0.00 0.00 0.00 0.00 0.00 0.00 0.00 0.00 0.00 0.00 0.00 0.00
0.00 0.00 0.00 0.00 0.00 0.01 0.00 0.00 0.00 0.00 0.00 0.03 0.15 0.43 0.26 0.57 0.13 0.01 0.00 0.00 0.00 0.00 0.00 0.00 0.00 0.00 0.00 0.00 0.00 0.00 0.00 0.00 0.00 0.00 0.00 0.00 0.00 0.00 0.00 0.00 0.00 0.00 0.00 0.00
0.01 0.00 0.00 0.00 0.00 0.00 0.00 0.00 0.00 0.00 0.00 0.00 0.02 0.15 0.16 0.78 0.15 0.01 0.00 0.00 0.00 0.00 0.00 0.00 0.00 0.00 0.00 0.00 0.00 0.00 0.01 0.00 0.00 0.00 0.00 0.00 0.00 0.00 0.00 0.00 0.00 0.00 0.00 0.00
MSLP
1006.89 1007.38 1008.77 1008.75 1009.36 1009.34 1010.63 1012.06 1012.04 1009.77 1010.50 1010.08 1010.86 1010.62 1009.92 1009.08 1009.02 1009.30 1009.94 1010.44 1010.67 1010.71 1010.76 1011.19 1011.37 1011.86 1012.97 1013.54 1013.99 1014.15 1014.65 1015.07 1015.47 1015.50 1016.05 1016.42 1016.68 1016.56 1017.18 1017.29 1016.91 1016.64 1016.98 1016.69
1006.99 1007.06 1006.23 1007.74 1007.78 1008.12 1008.48 1009.08 1009.17 1010.69 1009.91 1011.83 1012.21 1010.70 1009.33 1008.81 1008.46 1008.36 1008.93 1009.69 1010.02 1010.17 1010.30 1010.63 1010.94 1011.93 1012.63 1013.17 1013.66 1014.01 1014.41 1014.76 1015.11 1015.22 1015.60 1015.90 1016.08 1016.15 1016.34 1016.74 1016.56 1016.55 1016.46 1016.61
1005.61 1004.93 1004.75 1006.34 1006.04 1006.97 1006.71 1006.82 1007.66 1009.51 1011.37 1011.49 1012.29 1011.76 1009.51 1008.48 1007.99 1007.91 1008.19 1008.43 1009.34 1009.74 1009.86 1010.28 1010.68 1011.46 1012.04 1012.83 1013.16 1013.55 1013.84 1014.29 1014.67 1014.84 1015.35 1015.92 1016.18 1016.17 1016.05 1016.36 1016.59 1016.66 1016.37 1016.34
1004.44 1004.26 1004.85 1005.71 1005.75 1005.24 1006.16 1005.45 1007.25 1010.09 1010.32 1011.38 1011.76 1012.10 1009.96 1008.96 1008.37 1007.53 1007.58 1007.72 1008.32 1008.88 1009.18 1009.63 1010.07 1010.85 1011.61 1012.10 1012.50 1013.16 1013.63 1013.89 1014.29 1014.65 1015.07 1015.64 1016.08 1016.32 1016.21 1016.34 1016.27 1016.61 1016.65 1016.13
1003.96 1003.91 1004.70 1005.10 1004.24 1004.63 1007.57 1006.52 1008.23 1009.54 1011.76 1012.06 1012.57 1012.12 1010.20 1009.45 1008.32 1007.52 1007.00 1007.10 1007.22 1007.74 1008.43 1009.00 1009.42 1009.94 1010.67 1011.33 1012.10 1012.62 1013.13 1013.52 1013.76 1014.16 1014.65 1015.42 1015.75 1015.93 1016.08 1016.42 1016.67 1017.07 1016.72 1016.25
1003.58 1003.65 1003.41 1003.65 1002.82 1004.10 1005.27 1006.18 1007.88 1010.20 1012.45 1013.70 1013.41 1013.06 1010.65 1009.17 1007.78 1007.46 1007.04 1006.88 1007.08 1007.48 1007.87 1008.20 1008.75 1009.25 1009.94 1010.78 1011.53 1012.12 1012.61 1013.02 1013.22 1013.64 1014.17 1014.86 1015.27 1015.72 1016.13 1016.67 1016.90 1016.67 1016.25 1016.79
1003.26 1003.47 1002.46 1002.61 1003.20 1005.05 1004.89 1006.68 1009.72 1012.05 1013.95 1015.95 1014.26 1013.20 1010.06 1007.41 1006.96 1006.58 1007.12 1007.66 1007.67 1007.62 1007.90 1008.33 1008.90 1008.91 1009.43 1010.15 1010.84 1011.60 1012.28 1012.72 1013.02 1013.28 1013.80 1014.31 1014.77 1015.22 1015.76 1015.99 1016.26 1016.63 1016.58 1017.17
1003.28 1002.71 1002.06 1001.44 1002.14 1003.12 1004.45 1006.20 1008.52 1012.25 1015.23 1016.86 1015.87 1013.46 1009.19 1007.10 1005.90 1006.10 1007.29 1007.36 1009.44 1009.69 1010.45 1010.79 1009.76 1008.67 1008.92 1009.49 1010.26 1010.94 1011.72 1012.26 1012.67 1012.94 1013.35 1013.80 1014.19 1014.75 1015.34 1015.39 1015.62 1016.05 1016.40 1017.16
1002.81 1002.11 1001.15 1000.97 1001.76 1001.99 1004.05 1005.24 1006.68 1010.83 1013.87 1016.42 1015.54 1012.84 1009.51 1007.48 1007.10 1007.33 1008.60 1009.19 1011.72 1011.34 1010.03 1010.11 1010.02 1009.12 1008.69 1009.04 1009.67 1010.29 1011.20 1011.70 1012.19 1012.50 1012.88 1013.31 1013.65 1014.13 1014.83 1014.89 1015.14 1015.30 1015.87 1016.36
1002.34 1002.56 1001.76 1001.29 1001.17 1001.14 1002.01 1002.90 1005.48 1007.52 1011.80 1014.21 1014.19 1013.47 1010.71 1008.93 1008.50 1008.55 1009.30 1009.86 1011.07 1010.71 1010.97 1009.42 1008.50 1009.29 1009.19 1008.81 1009.30 1009.93 1010.45 1010.96 1011.41 1011.90 1012.32 1012.74 1013.12 1013.57 1014.15 1014.49 1014.65 1014.73 1015.09 1015.33
1001.90 1002.96 1002.92 1002.47 1002.01 1001.47 1001.44 1001.98 1002.81 1004.39 1006.74 1010.51 1012.81 1012.28 1008.87 1009.14 1008.28 1008.43 1008.83 1009.18 1010.02 1010.70 1010.81 1010.48 1009.19 1008.60 1009.00 1009.27 1008.99 1009.42 1010.00 1010.44 1010.87 1011.14 1011.50 1012.13 1012.56 1013.08 1013.63 1014.10 1014.39 1014.55 1014.87 1015.06
1002.45 1003.52 1003.84 1003.41 1002.16 1001.30 1001.54 1001.86 1002.58 1003.93 1005.30 1007.01 1008.92 1012.28 1008.91 1008.82 1007.48 1007.74 1008.93 1009.02 1009.32 1009.52 1010.33 1010.54 1010.42 1009.83 1009.35 1009.35 1009.51 1009.20 1009.26 1009.72 1009.90 1010.16 1010.80 1011.42 1011.92 1012.43 1013.06 1013.50 1013.77 1014.18 1014.43 1014.95
1001.99 1002.80 1003.99 1003.33 1002.04 1001.53 1001.52 1001.19 1000.96 1001.63 1003.89 1006.38 1008.00 1010.29 1007.80 1007.28 1007.38 1007.55 1008.24 1008.84 1009.13 1009.52 1010.14 1010.65 1011.06 1010.38 1009.89 1009.58 1009.34 1009.15 1009.19 1009.34 1009.47 1009.83 1010.55 1011.10 1011.65 1012.02 1012.43 1012.98 1013.35 1013.43 1013.72 1013.92
1000.90 1002.72 1003.57 1003.60 1003.13 1002.68 1002.10 1001.31 1000.84 1001.65 1004.22 1006.38 1007.41 1008.35 1007.82 1007.65 1007.51 1007.85 1008.33 1008.56 1008.63 1008.82 1009.21 1009.50 1009.66 1009.78 1009.79 1009.71 1009.57 1009.48 1009.52 1009.50 1009.65 1010.11 1010.55 1011.02 1011.35 1011.62 1011.88 1012.12 1012.44 1012.69 1012.77 1012.97
1001.15 1002.56 1003.00 1002.75 1002.76 1002.51 1002.17 1001.64 1001.49 1001.91 1003.35 1005.02 1007.43 1008.32 1008.67 1007.87 1007.37 1007.12 1008.15 1008.74 1008.98 1009.19 1009.61 1009.92 1010.09 1010.24 1010.28 1010.30 1010.21 1010.06 1010.05 1010.01 1010.08 1010.40 1010.71 1011.02 1011.12 1011.31 1011.68 1011.92 1012.06 1012.30 1012.42 1012.49
1001.51 1003.17 1003.32 1003.58 1002.88 1002.74 1002.31 1001.89 1001.30 1001.98 1003.00 1004.81 1007.11 1008.54 1008.09 1007.67 1007.55 1007.38 1008.15 1008.50 1008.94 1009.37 1009.84 1010.05 1010.26 1010.41 1010.65 1010.75 1010.80 1010.64 1010.52 1010.50 1010.56 1010.74 1011.04 1011.13 1011.10 1011.42 1011.74 1011.98 1012.17 1012.23 1012.43 1012.55
1002.53 1003.76 1004.77 1005.05 1004.15 1003.50 1003.16 1002.87 1001.42 1001.54 1002.61 1004.31 1006.50 1007.21 1007.86 1007.96 1007.69 1007.84 1008.18 1008.52 1009.10 1009.62 1010.18 1010.39 1010.70 1010.87 1011.01 1011.08 1011.17 1011.32 1011.16 1011.02 1011.15 1011.40 1011.54 1011.65 1011.83 1011.95 1012.14 1012.42 1012.71 1012.85 1013.12 1013.08
1003.22 1004.31 1005.60 1006.77 1005.41 1005.13 1003.77 1003.28 1002.51 1002.57 1004.53 1005.09 1006.22 1007.31 1007.99 1008.44 1008.23 1008.30 1007.73 1008.61 1009.11 1009.43 1010.01 1010.46 1010.69 1011.17 1011.39 1011.33 1011.39 1011.49 1011.55 1011.55 1011.70 1011.96 1012.08 1012.26 1012.46 1012.51 1012.75 1013.01 1013.06 1013.13 1013.38 1013.28
1002.32 1005.14 1006.92 1007.42 1007.23 1006.23 1004.19 1002.65 1003.74 1003.90 1006.39 1006.51 1007.38 1008.09 1008.69 1009.04 1008.89 1008.23 1007.89 1008.49 1009.04 1009.45 1009.91 1010.14 1010.67 1011.40 1011.39 1011.45 1011.56 1011.72 1012.04 1012.18 1012.31 1012.46 1012.50 1012.61 1012.73 1012.82 1012.96 1013.14 1013.16 1013.18 1013.21 1013.25
1001.14 1003.23 1005.53 1006.65 1006.37 1006.89 1006.69 1003.92 1003.67 1005.80 1008.31 1008.18 1008.02 1008.74 1009.02 1008.71 1010.11 1010.62 1008.28 1008.46 1009.07 1009.26 1009.59 1009.97 1010.52 1011.13 1011.43 1011.69 1011.88 1012.06 1012.37 1012.59 1012.78 1012.85 1012.89 1012.83 1012.94 1013.15 1013.20 1013.28 1013.34 1013.26 1013.28 1013.38
1000.97 1001.86 1002.75 1003.76 1003.97 1002.98 1002.34 1001.81 1002.95 1005.17 1007.75 1008.34 1007.84 1007.63 1007.63 1008.83 1010.26 1010.82 1010.69 1008.62 1008.83 1009.19 1009.28 1009.90 1010.65 1011.26 1011.54 1011.73 1012.06 1012.47 1012.59 1012.95 1012.85 1012.93 1012.98 1013.09 1013.18 1013.29 1013.30 1013.37 1013.38 1013.39 1013.46 1013.48
1001.10 1001.65 1002.38 1002.72 1002.77 1002.43 1001.36 1001.65 1003.15 1005.11 1006.58 1007.66 1007.53 1006.59 1006.75 1008.93 1009.56 1011.62 1011.13 1008.74 1009.01 1009.14 1009.30 1009.96 1010.84 1011.21 1011.44 1011.61 1012.00 1012.67 1012.92 1012.85 1012.84 1013.09 1013.26 1013.26 1013.23 1013.24 1013.39 1013.44 1013.42 1013.34 1013.48 1013.62
1001.05 1001.11 1001.63 1001.72 1002.04 1001.48 1001.02 1001.91 1003.16 1004.21 1005.43 1006.31 1005.82 1005.51 1006.33 1007.10 1008.77 1009.85 1008.76 1008.81 1008.91 1008.92 1009.30 1010.01 1010.75 1011.35 1011.69 1011.86 1012.00 1012.59 1012.78 1012.89 1013.05 1013.26 1013.40 1013.45 1013.38 1013.33 1013.34 1013.50 1013.51 1013.66 1013.59 1013.97
1000.72 1000.52 1001.19 1001.72 1001.94 1001.52 1001.39 1002.29 1003.24 1003.77 1004.38 1005.87 1006.44 1006.12 1006.80 1006.97 1008.38 1008.94 1007.88 1008.20 1008.48 1009.00 1009.49 1010.21 1010.94 1011.46 1011.83 1011.94 1012.19 1012.24 1012.62 1012.71 1013.04 1013.23 1013.35 1013.44 1013.45 1013.40 1013.23 1013.27 1013.40 1013.60 1013.71 1013.96
1001.00 1000.77 1001.33 1001.79 1001.59 1001.67 1001.31 1001.61 1001.93 1003.14 1004.44 1006.40 1007.99 1009.36 1010.07 1009.93 1009.00 1007.24 1007.71 1007.86 1008.24 1008.88 1009.70 1010.30 1010.89 1011.40 1011.72 1011.75 1011.96 1012.17 1012.43 1012.59 1012.97 1013.16 1013.31 1013.41 1013.39 1013.36 1013.41 1013.33 1013.56 1013.69 1014.00 1014.13
1001.23 1001.00 1001.05 1001.42 1001.38 1001.24 1001.47 1001.46 1001.44 1002.13 1003.54 1004.62 1006.70 1008.31 1010.80 1009.41 1009.13 1007.24 1007.61 1008.06 1008.35 1009.09 1009.75 1010.39 1010.93 1011.47 1011.57 1011.56 1011.76 1012.07 1012.12 1012.44 1012.87 1013.06 1013.09 1013.03 1013.09 1013.06 1013.29 1013.39 1013.71 1014.05 1014.00 1014.16
Thickness
5819 5813 5785 5796 5797 5800 5780 5749 5746 5800 5802 5802 5782 5784 5795 5811 5808 5805 5798 5798 5799 5804 5816 5819 5820 5822 5816 5816 5816 5817 5815 5815 5814 5813 5807 5803 5801 5803 5796 5792 5794 5797 5797 5799
5807 5798 5830 5822 5821 5809 5801 5785 5779 5780 5801 5772 5770 5782 5804 5814 5813 5816 5811 5807 5809 5813 5816 5823 5826 5823 5820 5820 5820 5820 5819 5818 5817 5817 5814 5810 5809 5806 5804 5801 5802 5802 5802 5797
5804 5829 5852 5831 5824 5812 5812 5813 5808 5781 5781 5783 5749 5745 5791 5818 5825 5827 5825 5827 5818 5814 5819 5823 5826 5827 5827 5823 5823 5822 5824 5822 5820 5822 5818 5811 5808 5806 5807 5804 5804 5802 5803 5801
5830 5846 5835 5821 5818 5830 5810 5847 5830 5794 5789 5769 5788 5748 5784 5800 5805 5822 5827 5831 5831 5826 5830 5830 5831 5831 5831 5829 5830 5826 5824 5825 5823 5822 5817 5812 5803 5797 5805 5805 5807 5804 5802 5803
5821 5835 5831 5820 5832 5841 5804 5836 5815 5804 5770 5775 5777 5757 5781 5796 5803 5814 5827 5834 5839 5840 5835 5833 5834 5837 5838 5837 5832 5830 5829 5828 5828 5826 5822 5814 5809 5806 5808 5805 5802 5798 5801 5803
5835 5849 5850 5842 5863 5852 5852 5834 5821 5798 5774 5747 5769 5756 5764 5788 5810 5819 5831 5839 5840 5844 5841 5842 5844 5841 5841 5840 5837 5834 5832 5831 5831 5829 5825 5818 5814 5807 5805 5802 5801 5802 5805 5802
5827 5831 5858 5863 5840 5833 5841 5809 5753 5745 5731 5722 5754 5759 5783 5825 5830 5835 5830 5828 5840 5841 5841 5839 5836 5839 5841 5840 5839 5836 5831 5830 5832 5831 5828 5823 5819 5813 5806 5807 5805 5802 5803 5796
5793 5796 5845 5872 5850 5834 5833 5812 5763 5729 5709 5715 5738 5742 5790 5837 5853 5848 5829 5798 5801 5811 5810 5811 5820 5839 5843 5841 5842 5839 5834 5833 5833 5832 5830 5827 5824 5817 5809 5809 5808 5808 5805 5798
5799 5810 5863 5870 5871 5862 5827 5812 5831 5760 5747 5706 5738 5769 5813 5841 5840 5837 5815 5811 5783 5786 5809 5817 5823 5835 5845 5846 5844 5843 5836 5836 5834 5834 5832 5829 5827 5823 5812 5812 5810 5812 5810 5803
5827 5794 5849 5859 5868 5874 5848 5863 5803 5796 5718 5720 5734 5744 5763 5802 5816 5819 5811 5806 5791 5800 5801 5812 5836 5836 5841 5848 5848 5847 5843 5839 5838 5837 5835 5832 5830 5826 5818 5814 5811 5813 5814 5810
5843 5814 5818 5840 5840 5836 5846 5842 5850 5835 5817 5745 5721 5743 5802 5796 5819 5818 5821 5823 5813 5808 5807 5813 5834 5841 5843 5844 5849 5848 5844 5842 5840 5840 5839 5834 5832 5828 5822 5815 5811 5808 5810 5807
5830 5808 5786 5806 5849 5870 5862 5848 5849 5810 5819 5806 5786 5736 5817 5807 5836 5832 5819 5826 5827 5826 5818 5820 5822 5830 5839 5844 5840 5845 5851 5846 5847 5846 5842 5837 5834 5830 5823 5817 5815 5811 5806 5805
5833 5806 5776 5788 5832 5852 5845 5856 5867 5868 5837 5800 5778 5761 5834 5841 5835 5836 5825 5822 5827 5826 5824 5822 5820 5826 5830 5835 5840 5843 5845 5848 5849 5847 5841 5837 5832 5829 5825 5819 5815 5815 5810 5806
5853 5813 5802 5778 5803 5826 5823 5848 5864 5856 5805 5796 5794 5795 5824 5829 5828 5829 5829 5830 5832 5830 5829 5829 5830 5831 5833 5835 5836 5837 5839 5843 5844 5840 5836 5831 5830 5828 5826 5824 5820 5817 5816 5813
5845 5805 5821 5836 5835 5838 5835 5843 5851 5848 5832 5802 5795 5797 5796 5811 5828 5834 5832 5828 5829 5827 5825 5823 5823 5824 5825 5827 5829 5831 5832 5834 5834 5832 5828 5827 5827 5827 5823 5821 5820 5817 5815 5814
5848 5803 5826 5816 5834 5835 5830 5845 5855 5851 5843 5826 5805 5792 5814 5823 5822 5832 5827 5827 5823 5823 5822 5824 5823 5822 5821 5821 5822 5825 5826 5827 5828 5823 5820 5824 5822 5819 5817 5815 5812 5811 5808 5805
5830 5808 5797 5785 5814 5821 5805 5824 5843 5847 5847 5832 5804 5812 5821 5826 5825 5826 5823 5823 5819 5818 5815 5817 5818 5817 5816 5817 5817 5816 5818 5821 5819 5815 5813 5812 5811 5809 5806 5805 5800 5798 5793 5793
5815 5798 5781 5766 5788 5763 5811 5829 5848 5841 5830 5835 5826 5817 5821 5820 5825 5828 5836 5822 5819 5819 5816 5815 5814 5811 5811 5813 5812 5813 5813 5812 5810 5807 5805 5804 5801 5800 5797 5793 5791 5789 5785 5784
5832 5784 5757 5755 5750 5781 5806 5840 5820 5819 5794 5824 5817 5815 5813 5815 5816 5826 5833 5826 5819 5817 5816 5818 5815 5807 5808 5808 5808 5805 5802 5801 5799 5796 5796 5795 5794 5793 5791 5787 5786 5784 5781 5779
5850 5816 5783 5768 5752 5737 5747 5811 5834 5810 5761 5804 5812 5806 5807 5812 5782 5783 5827 5827 5820 5821 5819 5817 5814 5808 5804 5803 5802 5797 5794 5792 5789 5789 5788 5789 5788 5785 5782 5781 5779 5778 5776 5772
5816 5819 5803 5794 5795 5806 5829 5851 5846 5788 5777 5803 5813 5818 5823 5808 5792 5795 5793 5820 5823 5819 5820 5818 5808 5800 5799 5802 5798 5791 5789 5785 5787 5787 5786 5784 5783 5781 5780 5778 5776 5774 5770 5767
5806 5794 5796 5799 5796 5784 5848 5845 5813 5810 5813 5806 5814 5822 5817 5794 5796 5783 5784 5815 5814 5815 5816 5810 5798 5798 5800 5800 5796 5788 5785 5788 5787 5784 5782 5781 5780 5780 5777 5775 5774 5772 5768 5763
5800 5814 5798 5806 5797 5838 5848 5834 5830 5830 5815 5811 5820 5829 5826 5817 5801 5789 5808 5811 5812 5812 5810 5808 5800 5796 5797 5797 5796 5787 5786 5787 5785 5782 5779 5779 5778 5778 5777 5773 5770 5766 5765 5757
5824 5841 5813 5809 5819 5827 5837 5834 5831 5829 5824 5812 5812 5821 5822 5822 5810 5807 5822 5817 5815 5808 5804 5801 5796 5792 5791 5795 5794 5793 5789 5788 5784 5780 5779 5779 5776 5775 5776 5774 5771 5766 5762 5756
5817 5829 5813 5807 5819 5823 5835 5840 5845 5835 5824 5806 5794 5766 5751 5776 5790 5823 5819 5817 5816 5809 5803 5800 5795 5792 5793 5796 5794 5793 5790 5788 5783 5780 5779 5777 5777 5774 5771 5772 5767 5766 5760 5756
5818 5815 5798 5792 5818 5818 5824 5838 5845 5842 5828 5823 5798 5774 5757 5749 5770 5816 5814 5812 5813 5805 5801 5797 5795 5793 5794 5795 5794 5792 5792 5789 5783 5779 5779 5780 5776 5775 5772 5769 5765 5758 5757 5753